GW7060 Weather Reports


time (UTC)temp
C
wind
direction
speed
KPH
gust
KPH
rain 1hr
cm
rain 24hr
cm
rain mn
cm
humidity
%
barometer
mb
20260504000107 15 0.0 1.6 0.00 0.00 0.00 36 1016.3
20260503235147 15 123 0.0 3.2 0.00 0.00 0.00 35 1016.3
20260503234106 15 330 1.6 4.8 0.00 0.00 0.00 34 1016.2
20260503233106 16 305 1.6 4.8 0.00 0.00 0.00 33 1016.3
20260503232126 16 307 1.6 6.4 0.00 0.00 0.00 30 1016.3
20260503231106 16 53 1.6 8.0 0.00 0.00 0.00 30 1016.2
20260503230105 17 304 3.2 8.0 0.00 0.00 0.00 30 1016.2
20260503225105 17 171 1.6 8.0 0.00 0.00 0.00 29 1016.3
20260503224105 17 299 1.6 9.7 0.00 0.00 0.00 29 1016.3
20260503223107 17 332 4.8 8.0 0.00 0.00 0.00 30 1016.3
20260503222106 17 130 1.6 8.0 0.00 0.00 0.00 29 1016.3
20260503221106 17 316 3.2 6.4 0.00 0.00 0.00 30 1016.3
20260503220106 16 335 3.2 8.0 0.00 0.00 0.00 30 1016.2
20260503215106 16 311 6.4 12.9 0.00 0.00 0.00 31 1016.1
20260503214106 17 201 4.8 6.4 0.00 0.00 0.00 29 1016.3
20260503213125 16 326 6.4 14.5 0.00 0.00 0.00 29 1016.2
20260503212126 17 291 4.8 12.9 0.00 0.00 0.00 28 1016.2
20260503211105 17 302 6.4 14.5 0.00 0.00 0.00 29 1016.2
20260503210127 16 258 4.8 12.9 0.00 0.00 0.00 30 1016.1
20260503205106 16 336 4.8 16.1 0.00 0.00 0.00 30 1016.1
20260503204106 16 352 8.0 17.7 0.00 0.00 0.00 30 1016.2
20260503203106 16 335 8.0 14.5 0.00 0.00 0.00 31 1016.4
20260503202106 16 339 8.0 20.9 0.00 0.00 0.00 31 1016.4
20260503201105 16 333 8.0 17.7 0.00 0.00 0.00 30 1016.4
20260503200107 16 320 6.4 19.3 0.00 0.00 0.00 29 1016.6
20260503195107 16 319 6.4 16.1 0.00 0.00 0.00 28 1016.6
20260503194108 16 338 8.0 16.1 0.00 0.00 0.00 32 1016.7
20260503193107 16 343 3.2 9.7 0.00 0.00 0.00 30 1016.8
20260503192106 16 352 8.0 16.1 0.00 0.00 0.00 30 1017.0
20260503191106 16 343 9.7 19.3 0.00 0.00 0.00 30 1017.2
20260503190106 16 338 8.0 17.7 0.00 0.00 0.00 30 1017.3
20260503185106 15 2 8.0 14.5 0.00 0.00 0.00 31 1017.3
20260503184106 15 357 6.4 17.7 0.00 0.00 0.00 33 1017.3
20260503183107 15 308 8.0 17.7 0.00 0.00 0.00 32 1017.4
20260503182107 15 339 6.4 12.9 0.00 0.00 0.00 34 1017.3
20260503181107 15 28 6.4 20.9 0.00 0.00 0.00 35 1017.4
20260503180107 15 321 8.0 17.7 0.00 0.00 0.00 34 1017.4
20260503175107 15 346 8.0 19.3 0.00 0.00 0.00 34 1017.6
20260503174106 15 267 4.8 14.5 0.00 0.00 0.00 34 1017.6
20260503173106 15 321 4.8 19.3 0.00 0.00 0.00 35 1017.7
20260503172106 15 312 6.4 19.3 0.00 0.00 0.00 34 1017.8
20260503171106 14 304 8.0 17.7 0.00 0.00 0.00 34 1017.9
20260503170107 14 325 8.0 17.7 0.00 0.00 0.00 34 1018.0
20260503160106 13 319 4.8 14.5 0.00 0.00 0.00 36 1018.2
20260503150106 12 284 4.8 17.7 0.00 0.00 0.00 41 1018.1
20260503140107 11 359 8.0 20.9 0.03 0.00 0.00 48 1018.0
20260503131125 8 312 11.3 24.1 0.10 0.00 0.00 75 1017.6
20260503130107 8 351 12.9 24.1 0.08 0.00 0.00 70 1017.5
20260503120107 10 342 11.3 20.9 0.00 0.00 0.00 51 1016.6
20260503110126 11 351 9.7 20.9 0.00 0.00 0.00 50 1016.0
20260503100107 11 294 6.4 16.1 0.00 0.00 0.00 55 1014.8
20260503090106 12 353 11.3 24.1 0.00 0.00 0.00 52 1013.9
20260503081106 12 323 9.7 24.1 0.00 0.00 0.00 56 1013.3
20260503080106 12 349 8.0 20.9 0.00 0.00 0.00 57 1013.0
20260503072106 12 26 4.8 14.5 0.00 0.00 0.00 63 1012.8
20260503071106 12 326 6.4 9.7 0.00 0.00 0.00 62 1012.6
20260503070105 12 10 4.8 9.7 0.00 0.00 0.00 62 1012.5
20260503060106 12 340 4.8 14.5 0.00 0.00 0.00 58 1012.0
20260503055106 12 341 4.8 12.9 0.00 0.00 0.00 57 1012.1
20260503054146 12 347 4.8 11.3 0.00 0.00 0.00 59 1012.2
20260503053108 12 358 4.8 9.7 0.00 0.00 0.00 59 1012.3
20260503052127 12 306 3.2 11.3 0.00 0.00 0.00 57 1012.5
20260503051107 12 326 4.8 16.1 0.00 0.00 0.00 56 1012.4
20260503050107 12 336 6.4 9.7 0.00 0.00 0.00 54 1012.5
20260503045126 12 347 4.8 12.9 0.00 0.00 0.00 57 1012.5
20260503044126 12 334 4.8 8.0 0.00 0.00 0.00 56 1012.5
20260503043106 12 266 3.2 8.0 0.00 0.00 0.00 58 1012.6
20260503042105 12 330 3.2 8.0 0.00 0.00 0.00 59 1012.5
20260503041126 13 347 3.2 9.7 0.00 0.00 0.00 60 1012.5
20260503040107 13 320 4.8 11.3 0.00 0.00 0.00 60 1012.5
20260503035107 13 349 3.2 6.4 0.00 0.00 0.00 60 1012.5
20260503034107 13 314 3.2 6.4 0.00 0.00 0.00 61 1012.4
20260503033106 13 5 3.2 11.3 0.00 0.00 0.00 60 1012.2
20260503032106 13 341 4.8 9.7 0.00 0.00 0.00 58 1012.2
20260503031104 13 6 4.8 9.7 0.00 0.00 0.00 57 1012.3
20260503030103 13 323 3.2 8.0 0.00 0.00 0.00 57 1012.4
20260503025102 13 342 6.4 14.5 0.00 0.00 0.00 54 1012.6
20260503024059 13 355 6.4 16.1 0.00 0.00 0.00 53 1012.6
20260503023057 13 333 8.0 14.5 0.00 0.00 0.00 53 1012.4
20260503022057 13 346 6.4 16.1 0.00 0.00 0.00 53 1012.4
20260503021115 13 330 6.4 12.9 0.00 0.00 0.00 54 1012.3
20260503020053 13 324 4.8 12.9 0.00 0.00 0.00 56 1012.3
20260503015052 13 343 8.0 17.7 0.00 0.00 0.00 55 1012.4
20260503014110 13 332 8.0 17.7 0.00 0.00 0.00 55 1012.3
20260503013048 13 350 8.0 17.7 0.00 0.00 0.00 55 1012.2
20260503012046 13 331 6.4 19.3 0.00 0.00 0.00 55 1011.9
20260503011046 13 3 9.7 20.9 0.00 0.00 0.00 55 1012.0
20260503010044 13 343 8.0 17.7 0.00 0.00 0.00 55 1012.1
20260503005041 13 337 8.0 14.5 0.00 0.00 0.00 55 1012.0
20260503004041 13 353 9.7 17.7 0.00 0.00 0.00 54 1011.8
20260503003100 13 333 9.7 14.5 0.00 0.00 0.00 54 1011.9
20260503002037 13 342 9.7 17.7 0.00 0.00 0.00 54 1011.6
20260503001035 13 346 9.7 22.5 0.00 0.00 0.00 52 1011.5